Time,TemperatureF,DewpointF,PressureIn,WindDirection,WindDirectionDegrees,WindSpeedMPH,WindSpeedGustMPH,Humidity,HourlyPrecipIn,Conditions,Clouds,dailyrainin,SoftwareType,DateUTC
2013-10-08 00:02:00,46.3,41.4,29.76,North,360,2.1,3.5,83,0.00,CLR,SKC,0.00,WeatherDisplay:10.37,2013-10-08 05:02:00,
2013-10-08 00:07:00,46.2,41.3,29.76,North,360,2.3,3.5,83,0.00,CLR,SKC,0.00,WeatherDisplay:10.37,2013-10-08 05:07:00,
2013-10-08 00:12:00,46.3,41.4,29.76,North,360,2.5,3.5,83,0.00,CLR,SKC,0.00,WeatherDisplay:10.37,2013-10-08 05:12:00,
2013-10-08 00:17:00,46.3,41.4,29.76,North,360,2.8,4.0,83,0.00,CLR,SKC,0.00,WeatherDisplay:10.37,2013-10-08 05:17:00,
2013-10-08 00:22:00,46.3,41.4,29.76,North,360,2.3,4.0,83,0.00,CLR,SKC,0.00,WeatherDisplay:10.37,2013-10-08 05:22:00,
2013-10-08 00:27:00,46.3,41.7,29.76,North,360,2.8,4.0,84,0.00,CLR,SKC,0.00,WeatherDisplay:10.37,2013-10-08 05:27:00,
2013-10-08 00:32:00,46.5,41.9,29.76,North,360,2.3,4.0,84,0.00,CLR,SKC,0.00,WeatherDisplay:10.37,2013-10-08 05:32:00,
2013-10-08 00:37:00,46.6,42.0,29.75,North,360,2.5,4.0,84,0.00,CLR,SKC,0.00,WeatherDisplay:10.37,2013-10-08 05:37:00,
2013-10-08 00:42:00,46.6,42.0,29.75,North,360,3.1,4.0,84,0.00,CLR,SKC,0.00,WeatherDisplay:10.37,2013-10-08 05:42:00,
2013-10-08 00:47:00,46.7,42.1,29.75,North,5,3.2,5.0,84,0.00,CLR,SKC,0.00,WeatherDisplay:10.37,2013-10-08 05:47:00,
2013-10-08 00:52:00,46.8,42.2,29.75,NNE,13,3.3,4.6,84,0.00,CLR,SKC,0.00,WeatherDisplay:10.37,2013-10-08 05:52:00,
2013-10-08 00:57:00,46.9,42.3,29.75,NNE,23,2.9,4.0,84,0.00,CLR,SKC,0.00,WeatherDisplay:10.37,2013-10-08 05:57:00,
2013-10-08 01:02:00,47.1,42.5,29.75,NNE,27,2.6,4.6,84,0.00,CLR,SKC,0.00,WeatherDisplay:10.37,2013-10-08 06:02:00,
2013-10-08 01:07:00,47.2,42.6,29.75,NNE,30,1.9,3.5,84,0.00,CLR,SKC,0.00,WeatherDisplay:10.37,2013-10-08 06:07:00,
2013-10-08 01:12:00,47.2,42.6,29.76,NNE,30,1.8,3.5,84,0.00,CLR,SKC,0.00,WeatherDisplay:10.37,2013-10-08 06:12:00,
2013-10-08 01:17:00,47.1,42.5,29.76,NNE,30,2.0,3.0,84,0.00,CLR,SKC,0.00,WeatherDisplay:10.37,2013-10-08 06:17:00,
2013-10-08 01:22:00,47.1,42.5,29.76,NNE,30,2.2,3.5,84,0.00,CLR,SKC,0.00,WeatherDisplay:10.37,2013-10-08 06:22:00,
2013-10-08 01:27:00,47.0,42.4,29.76,NNE,30,2.3,3.5,84,0.00,CLR,SKC,0.00,WeatherDisplay:10.37,2013-10-08 06:27:00,
2013-10-08 01:32:00,46.9,42.3,29.76,NNE,32,2.3,3.5,84,0.00,CLR,SKC,0.00,WeatherDisplay:10.37,2013-10-08 06:32:00,
2013-10-08 01:37:00,46.8,42.2,29.76,NNE,32,2.1,4.0,84,0.00,CLR,SKC,0.00,WeatherDisplay:10.37,2013-10-08 06:37:00,
2013-10-08 01:42:00,46.7,42.1,29.76,NNE,32,2.1,3.5,84,0.00,CLR,SKC,0.00,WeatherDisplay:10.37,2013-10-08 06:42:00,
2013-10-08 01:47:00,46.5,41.9,29.76,NNE,32,1.5,3.5,84,0.00,CLR,SKC,0.00,WeatherDisplay:10.37,2013-10-08 06:47:00,
2013-10-08 01:52:00,46.5,41.9,29.76,NNE,32,2.4,4.0,84,0.00,CLR,SKC,0.00,WeatherDisplay:10.37,2013-10-08 06:52:00,
2013-10-08 01:57:00,46.5,41.9,29.76,NNE,32,2.1,3.5,84,0.00,CLR,SKC,0.00,WeatherDisplay:10.37,2013-10-08 06:57:00,
2013-10-08 02:02:00,46.5,41.9,29.76,NE,34,2.5,4.0,84,0.00,CLR,SKC,0.00,WeatherDisplay:10.37,2013-10-08 07:02:00,
2013-10-08 02:07:00,46.6,42.0,29.76,NE,42,2.4,4.0,84,0.00,CLR,SKC,0.00,WeatherDisplay:10.37,2013-10-08 07:07:00,
2013-10-08 02:12:00,46.7,42.1,29.76,NE,44,2.3,3.5,84,0.00,CLR,SKC,0.00,WeatherDisplay:10.37,2013-10-08 07:12:00,
2013-10-08 02:17:00,46.9,42.3,29.76,NE,44,2.6,4.0,84,0.00,CLR,SKC,0.00,WeatherDisplay:10.37,2013-10-08 07:17:00,
2013-10-08 02:22:00,47.0,42.4,29.76,NE,45,2.6,4.0,84,0.00,CLR,SKC,0.00,WeatherDisplay:10.37,2013-10-08 07:22:00,
2013-10-08 02:27:00,47.0,42.4,29.76,NE,45,3.2,4.0,84,0.00,CLR,SKC,0.00,WeatherDisplay:10.37,2013-10-08 07:27:00,
2013-10-08 02:32:00,46.9,42.3,29.76,NE,46,2.4,3.5,84,0.00,CLR,SKC,0.00,WeatherDisplay:10.37,2013-10-08 07:32:00,
2013-10-08 02:37:00,46.9,42.3,29.76,NE,47,2.8,4.0,84,0.00,CLR,SKC,0.00,WeatherDisplay:10.37,2013-10-08 07:37:00,
2013-10-08 02:42:00,46.8,42.2,29.76,NE,49,2.2,4.0,84,0.00,CLR,SKC,0.00,WeatherDisplay:10.37,2013-10-08 07:42:00,
2013-10-08 02:47:00,46.9,42.3,29.76,NE,52,2.8,4.6,84,0.00,CLR,SKC,0.00,WeatherDisplay:10.37,2013-10-08 07:47:00,
2013-10-08 02:52:00,46.9,42.3,29.76,ENE,68,3.6,5.0,84,0.00,CLR,SKC,0.00,WeatherDisplay:10.37,2013-10-08 07:52:00,
2013-10-08 02:57:00,47.0,42.4,29.76,ENE,69,3.6,5.0,84,0.00,CLR,SKC,0.00,WeatherDisplay:10.37,2013-10-08 07:57:00,
2013-10-08 03:02:00,47.0,42.4,29.76,ENE,73,4.0,7.0,84,0.00,CLR,SKC,0.00,WeatherDisplay:10.37,2013-10-08 08:02:00,
2013-10-08 03:07:00,47.2,42.6,29.75,East,101,6.2,8.0,84,0.00,CLR,SKC,0.00,WeatherDisplay:10.37,2013-10-08 08:07:00,
2013-10-08 03:12:00,47.4,42.8,29.75,ESE,119,5.1,8.0,84,0.00,CLR,SKC,0.00,WeatherDisplay:10.37,2013-10-08 08:12:00,
2013-10-08 03:17:00,47.6,43.0,29.75,ESE,119,3.3,5.0,84,0.00,CLR,SKC,0.00,WeatherDisplay:10.37,2013-10-08 08:17:00,
2013-10-08 03:22:00,47.5,42.9,29.75,ESE,119,2.9,4.0,84,0.00,CLR,SKC,0.00,WeatherDisplay:10.37,2013-10-08 08:22:00,
2013-10-08 03:27:00,47.3,42.7,29.75,ESE,119,2.3,3.5,84,0.00,CLR,SKC,0.00,WeatherDisplay:10.37,2013-10-08 08:27:00,
2013-10-08 03:32:00,47.0,42.4,29.75,ESE,119,1.8,3.5,84,0.00,CLR,SKC,0.00,WeatherDisplay:10.37,2013-10-08 08:32:00,
2013-10-08 03:38:00,46.6,42.0,29.75,ESE,119,1.7,3.5,84,0.00,CLR,SKC,0.00,WeatherDisplay:10.37,2013-10-08 08:38:00,
2013-10-08 03:43:00,46.4,41.8,29.75,ESE,119,2.0,3.5,84,0.00,CLR,SKC,0.00,WeatherDisplay:10.37,2013-10-08 08:43:00,
2013-10-08 03:48:00,46.1,41.5,29.75,ESE,119,2.3,3.5,84,0.00,CLR,SKC,0.00,WeatherDisplay:10.37,2013-10-08 08:48:00,
2013-10-08 03:53:00,46.2,41.3,29.75,ESE,119,3.3,4.6,83,0.00,CLR,SKC,0.00,WeatherDisplay:10.37,2013-10-08 08:53:00,
2013-10-08 03:58:00,46.3,41.7,29.75,ESE,119,3.1,5.0,84,0.00,CLR,SKC,0.00,WeatherDisplay:10.37,2013-10-08 08:58:00,
2013-10-08 04:03:00,46.3,41.7,29.75,ESE,119,2.8,4.0,84,0.00,CLR,SKC,0.00,WeatherDisplay:10.37,2013-10-08 09:03:00,
2013-10-08 04:08:00,46.3,41.4,29.75,ESE,119,3.7,6.9,83,0.00,CLR,SKC,0.00,WeatherDisplay:10.37,2013-10-08 09:08:00,
2013-10-08 04:13:00,46.3,41.4,29.75,ESE,119,3.9,7.0,83,0.00,CLR,SKC,0.00,WeatherDisplay:10.37,2013-10-08 09:13:00,
2013-10-08 04:18:00,46.4,41.5,29.75,ESE,119,3.1,4.6,83,0.00,CLR,SKC,0.00,WeatherDisplay:10.37,2013-10-08 09:18:00,
2013-10-08 04:23:00,46.4,41.8,29.75,ESE,119,3.4,5.0,84,0.00,CLR,SKC,0.00,WeatherDisplay:10.37,2013-10-08 09:23:00,
2013-10-08 04:28:00,46.3,41.7,29.75,ESE,119,2.4,3.5,84,0.00,CLR,SKC,0.00,WeatherDisplay:10.37,2013-10-08 09:28:00,
2013-10-08 04:33:00,46.2,41.6,29.75,ESE,119,3.7,4.6,84,0.00,CLR,SKC,0.00,WeatherDisplay:10.37,2013-10-08 09:33:00,
2013-10-08 04:38:00,46.1,41.5,29.74,ESE,119,3.8,6.9,84,0.00,CLR,SKC,0.00,WeatherDisplay:10.37,2013-10-08 09:38:00,
2013-10-08 04:44:00,46.2,41.3,29.74,ESE,120,3.7,6.9,83,0.00,CLR,SKC,0.00,WeatherDisplay:10.37,2013-10-08 09:44:00,
2013-10-08 04:49:00,46.2,41.6,29.74,ESE,120,4.0,7.0,84,0.00,CLR,SKC,0.00,WeatherDisplay:10.37,2013-10-08 09:49:00,
2013-10-08 04:54:00,46.1,41.5,29.74,ESE,120,3.5,6.9,84,0.00,CLR,SKC,0.00,WeatherDisplay:10.37,2013-10-08 09:54:00,
2013-10-08 05:00:00,45.9,41.3,29.74,ESE,120,3.1,4.6,84,0.00,CLR,SKC,0.00,WeatherDisplay:10.37,2013-10-08 10:00:00,
2013-10-08 05:06:00,45.8,41.2,29.74,ESE,120,3.5,5.0,84,0.00,CLR,SKC,0.00,WeatherDisplay:10.37,2013-10-08 10:06:00,
2013-10-08 05:11:00,45.7,41.1,29.74,ESE,120,3.7,5.0,84,0.00,CLR,SKC,0.00,WeatherDisplay:10.37,2013-10-08 10:11:00,
2013-10-08 05:16:00,45.7,41.1,29.74,ESE,121,4.6,8.1,84,0.00,CLR,SKC,0.00,WeatherDisplay:10.37,2013-10-08 10:16:00,
2013-10-08 05:21:00,45.8,41.2,29.74,ESE,123,3.8,6.9,84,0.00,CLR,SKC,0.00,WeatherDisplay:10.37,2013-10-08 10:21:00,
2013-10-08 05:26:00,45.8,41.2,29.74,SE,124,4.5,6.9,84,0.00,CLR,SKC,0.00,WeatherDisplay:10.37,2013-10-08 10:26:00,
2013-10-08 05:31:00,45.8,41.2,29.74,SE,124,3.3,5.0,84,0.00,CLR,SKC,0.00,WeatherDisplay:10.37,2013-10-08 10:31:00,
2013-10-08 05:36:00,45.7,41.1,29.74,SE,124,3.3,5.0,84,0.00,CLR,SKC,0.00,WeatherDisplay:10.37,2013-10-08 10:36:00,
2013-10-08 05:41:00,45.6,41.0,29.74,SE,124,3.3,5.8,84,0.00,CLR,SKC,0.00,WeatherDisplay:10.37,2013-10-08 10:41:00,
2013-10-08 05:46:00,45.5,40.9,29.74,SE,124,3.6,4.6,84,0.00,CLR,SKC,0.00,WeatherDisplay:10.37,2013-10-08 10:46:00,
2013-10-08 05:51:00,45.3,40.7,29.74,SE,124,3.4,4.6,84,0.00,CLR,SKC,0.00,WeatherDisplay:10.37,2013-10-08 10:51:00,
2013-10-08 05:56:00,45.2,40.7,29.74,SE,124,3.9,6.0,84,0.00,CLR,SKC,0.00,WeatherDisplay:10.37,2013-10-08 10:56:00,
2013-10-08 06:01:00,45.2,40.7,29.74,SE,124,3.3,4.6,84,0.00,CLR,SKC,0.00,WeatherDisplay:10.37,2013-10-08 11:01:00,
2013-10-08 06:06:00,45.2,40.7,29.74,SE,124,3.8,6.0,84,0.00,CLR,SKC,0.00,WeatherDisplay:10.37,2013-10-08 11:06:00,
2013-10-08 06:11:00,45.2,40.7,29.74,SE,124,2.6,4.6,84,0.00,CLR,SKC,0.00,WeatherDisplay:10.37,2013-10-08 11:11:00,
2013-10-08 06:16:00,45.3,40.7,29.74,SE,124,3.5,5.0,84,0.00,CLR,SKC,0.00,WeatherDisplay:10.37,2013-10-08 11:16:00,
2013-10-08 06:21:00,45.2,40.7,29.74,SE,124,3.3,5.0,84,0.00,CLR,SKC,0.00,WeatherDisplay:10.37,2013-10-08 11:21:00,
2013-10-08 06:26:00,45.1,40.6,29.74,SE,124,4.0,5.0,84,0.00,CLR,SKC,0.00,WeatherDisplay:10.37,2013-10-08 11:26:00,
2013-10-08 06:31:00,45.1,40.6,29.74,SE,124,4.6,5.8,84,0.00,CLR,SKC,0.00,WeatherDisplay:10.37,2013-10-08 11:31:00,
2013-10-08 06:36:00,45.2,40.7,29.74,SE,124,2.8,4.6,84,0.00,CLR,SKC,0.00,WeatherDisplay:10.37,2013-10-08 11:36:00,
2013-10-08 06:41:00,45.1,40.6,29.74,SE,124,4.1,5.8,84,0.00,CLR,SKC,0.00,WeatherDisplay:10.37,2013-10-08 11:41:00,
2013-10-08 06:46:00,45.1,40.6,29.74,SE,128,4.6,6.0,84,0.00,CLR,SKC,0.00,WeatherDisplay:10.37,2013-10-08 11:46:00,
2013-10-08 06:51:00,45.1,40.6,29.74,SE,128,4.3,6.0,84,0.00,CLR,SKC,0.00,WeatherDisplay:10.37,2013-10-08 11:51:00,
2013-10-08 06:56:00,45.1,40.6,29.74,SE,128,3.9,6.0,84,0.00,CLR,SKC,0.00,WeatherDisplay:10.37,2013-10-08 11:56:00,
2013-10-08 07:01:00,45.0,40.5,29.74,SE,128,3.5,5.0,84,0.00,CLR,SKC,0.00,WeatherDisplay:10.37,2013-10-08 12:01:00,
2013-10-08 07:06:00,45.0,40.5,29.74,SE,128,3.6,5.0,84,0.00,CLR,SKC,0.00,WeatherDisplay:10.37,2013-10-08 12:06:00,
2013-10-08 07:11:00,45.0,40.5,29.74,SE,128,4.6,6.0,84,0.00,CLR,SKC,0.00,WeatherDisplay:10.37,2013-10-08 12:11:00,
2013-10-08 07:16:00,45.0,40.5,29.74,SE,130,4.0,5.8,84,0.00,CLR,SKC,0.00,WeatherDisplay:10.37,2013-10-08 12:16:00,
2013-10-08 07:21:00,45.0,40.5,29.74,SE,131,3.0,6.0,84,0.00,CLR,SKC,0.00,WeatherDisplay:10.37,2013-10-08 12:21:00,
2013-10-08 07:27:00,45.1,40.6,29.74,SE,135,3.7,6.0,84,0.00,CLR,SKC,0.00,WeatherDisplay:10.37,2013-10-08 12:27:00,
2013-10-08 07:32:00,45.1,40.6,29.74,SE,135,4.4,6.9,84,0.00,CLR,SKC,0.00,WeatherDisplay:10.37,2013-10-08 12:32:00,
2013-10-08 07:37:00,45.3,40.7,29.75,SE,135,3.5,5.0,84,0.00,CLR,SKC,0.00,WeatherDisplay:10.37,2013-10-08 12:37:00,
2013-10-08 07:42:00,45.4,40.8,29.75,SE,141,4.1,6.9,84,0.00,CLR,SKC,0.00,WeatherDisplay:10.37,2013-10-08 12:42:00,
2013-10-08 07:47:00,45.6,41.0,29.75,SE,141,3.7,5.0,84,0.00,CLR,SKC,0.00,WeatherDisplay:10.37,2013-10-08 12:47:00,
2013-10-08 07:52:00,45.8,41.2,29.75,SE,141,4.7,6.0,84,0.00,CLR,SKC,0.00,WeatherDisplay:10.37,2013-10-08 12:52:00,
2013-10-08 07:57:00,46.0,41.4,29.75,SE,141,3.8,5.8,84,0.00,CLR,SKC,0.00,WeatherDisplay:10.37,2013-10-08 12:57:00,
2013-10-08 08:02:00,46.2,41.6,29.75,SE,142,3.7,6.9,84,0.00,CLR,SKC,0.00,WeatherDisplay:10.37,2013-10-08 13:02:00,
2013-10-08 08:07:00,46.5,41.9,29.75,SE,142,4.0,5.8,84,0.00,CLR,SKC,0.00,WeatherDisplay:10.37,2013-10-08 13:07:00,
2013-10-08 08:12:00,46.9,42.3,29.75,SE,142,3.3,5.0,84,0.00,CLR,SKC,0.00,WeatherDisplay:10.37,2013-10-08 13:12:00,
2013-10-08 08:17:00,47.4,42.8,29.75,SE,146,4.5,8.1,84,0.00,CLR,SKC,0.00,WeatherDisplay:10.37,2013-10-08 13:17:00,
2013-10-08 08:22:00,47.8,43.2,29.75,SSE,149,3.4,6.0,84,0.00,CLR,SKC,0.00,WeatherDisplay:10.37,2013-10-08 13:22:00,
2013-10-08 08:27:00,48.5,43.6,29.75,SSE,157,4.5,8.1,83,0.00,CLR,SKC,0.00,WeatherDisplay:10.37,2013-10-08 13:27:00,
2013-10-08 08:32:00,49.3,44.4,29.75,SSE,159,5.2,8.1,83,0.00,CLR,SKC,0.00,WeatherDisplay:10.37,2013-10-08 13:32:00,
2013-10-08 08:37:00,50.3,45.0,29.75,SSE,161,5.3,9.2,82,0.00,CLR,SKC,0.00,WeatherDisplay:10.37,2013-10-08 13:37:00,
2013-10-08 08:42:00,51.2,45.6,29.74,SSE,164,6.1,8.0,81,0.00,CLR,SKC,0.00,WeatherDisplay:10.37,2013-10-08 13:42:00,
2013-10-08 08:47:00,52.1,46.1,29.74,SSE,167,6.0,8.1,80,0.00,CLR,SKC,0.00,WeatherDisplay:10.37,2013-10-08 13:47:00,
2013-10-08 08:52:00,53.0,46.3,29.74,SSE,167,6.2,9.2,78,0.00,CLR,SKC,0.00,WeatherDisplay:10.37,2013-10-08 13:52:00,
2013-10-08 08:57:00,53.7,46.7,29.74,South,173,6.7,12.7,77,0.00,CLR,SKC,0.00,WeatherDisplay:10.37,2013-10-08 13:57:00,
2013-10-08 09:02:00,54.5,46.7,29.74,South,179,7.8,11.5,75,0.00,CLR,SKC,0.00,WeatherDisplay:10.37,2013-10-08 14:02:00,
2013-10-08 09:07:00,55.2,47.1,29.74,South,173,7.8,11.5,74,0.00,CLR,SKC,0.00,WeatherDisplay:10.37,2013-10-08 14:07:00,
2013-10-08 09:12:00,55.9,47.4,29.74,South,172,5.9,10.4,73,0.00,CLR,SKC,0.00,WeatherDisplay:10.37,2013-10-08 14:12:00,
2013-10-08 09:17:00,56.7,47.8,29.74,South,179,6.7,9.2,72,0.00,CLR,SKC,0.00,WeatherDisplay:10.37,2013-10-08 14:17:00,
2013-10-08 09:22:00,57.3,48.0,29.74,South,184,6.6,9.0,71,0.00,CLR,SKC,0.00,WeatherDisplay:10.37,2013-10-08 14:22:00,
2013-10-08 09:27:00,58.2,48.1,29.74,South,189,7.1,11.5,69,0.00,CLR,SKC,0.00,WeatherDisplay:10.37,2013-10-08 14:27:00,
2013-10-08 09:32:00,58.9,48.0,29.74,South,186,7.3,12.7,67,0.00,CLR,SKC,0.00,WeatherDisplay:10.37,2013-10-08 14:32:00,
2013-10-08 09:37:00,59.6,48.2,29.74,South,180,7.1,10.4,66,0.00,CLR,SKC,0.00,WeatherDisplay:10.37,2013-10-08 14:37:00,
2013-10-08 09:42:00,60.3,48.9,29.73,South,185,8.0,13.0,66,0.00,CLR,SKC,0.00,WeatherDisplay:10.37,2013-10-08 14:42:00,
2013-10-08 09:47:00,60.9,48.6,29.73,South,189,8.8,15.0,64,0.00,CLR,SKC,0.00,WeatherDisplay:10.37,2013-10-08 14:47:00,
2013-10-08 09:52:00,61.4,48.3,29.73,South,185,9.3,14.0,62,0.00,CLR,SKC,0.00,WeatherDisplay:10.37,2013-10-08 14:52:00,
2013-10-08 09:57:00,61.8,48.2,29.73,South,183,9.6,15.0,61,0.00,CLR,SKC,0.00,WeatherDisplay:10.37,2013-10-08 14:57:00,
2013-10-08 10:02:00,62.4,48.3,29.73,SW,223,10.6,17.0,60,0.00,CLR,SKC,0.00,WeatherDisplay:10.37,2013-10-08 15:02:00,
2013-10-08 10:07:00,62.9,48.3,29.73,South,187,7.8,13.8,59,0.00,CLR,SKC,0.00,WeatherDisplay:10.37,2013-10-08 15:07:00,
2013-10-08 10:12:00,63.6,48.1,29.73,South,180,9.0,15.0,57,0.00,CLR,SKC,0.00,WeatherDisplay:10.37,2013-10-08 15:12:00,
2013-10-08 10:17:00,64.2,48.2,29.73,South,184,10.2,15.0,56,0.00,CLR,SKC,0.00,WeatherDisplay:10.37,2013-10-08 15:17:00,
2013-10-08 10:22:00,64.3,47.8,29.73,South,173,9.9,16.1,55,0.00,CLR,SKC,0.00,WeatherDisplay:10.37,2013-10-08 15:22:00,
2013-10-08 10:27:00,64.9,48.3,29.72,SSW,202,10.9,15.0,55,0.00,CLR,SKC,0.00,WeatherDisplay:10.37,2013-10-08 15:27:00,
2013-10-08 10:32:00,65.4,47.8,29.72,South,185,11.8,18.0,53,0.00,CLR,SKC,0.00,WeatherDisplay:10.37,2013-10-08 15:32:00,
2013-10-08 10:37:00,65.7,48.1,29.73,South,190,10.9,19.0,53,0.00,CLR,SKC,0.00,WeatherDisplay:10.37,2013-10-08 15:37:00,
2013-10-08 10:42:00,65.9,48.3,29.72,South,171,12.1,17.3,53,0.00,CLR,SKC,0.00,WeatherDisplay:10.37,2013-10-08 15:42:00,
2013-10-08 10:47:00,66.3,48.7,29.73,South,169,11.2,16.1,53,0.00,CLR,SKC,0.00,WeatherDisplay:10.37,2013-10-08 15:47:00,
2013-10-08 10:52:00,66.9,48.7,29.73,South,173,8.5,16.1,52,0.00,CLR,SKC,0.00,WeatherDisplay:10.37,2013-10-08 15:52:00,
2013-10-08 10:57:00,67.4,48.1,29.73,South,173,6.3,19.6,50,0.00,CLR,SKC,0.00,WeatherDisplay:10.37,2013-10-08 15:57:00,
2013-10-08 11:02:00,67.7,47.3,29.72,South,178,12.8,23.0,48,0.00,CLR,SKC,0.00,WeatherDisplay:10.37,2013-10-08 16:02:00,
2013-10-08 11:07:00,67.6,47.2,29.72,South,186,9.2,15.0,48,0.00,CLR,SKC,0.00,WeatherDisplay:10.37,2013-10-08 16:07:00,
2013-10-08 11:12:00,68.0,47.6,29.71,SSE,163,11.9,17.3,48,0.00,CLR,SKC,0.00,WeatherDisplay:10.37,2013-10-08 16:12:00,
2013-10-08 11:17:00,68.4,47.4,29.71,SSW,192,11.8,18.0,47,0.00,CLR,SKC,0.00,WeatherDisplay:10.37,2013-10-08 16:17:00,
2013-10-08 11:22:00,68.7,47.1,29.71,South,176,14.4,21.9,46,0.00,CLR,SKC,0.00,WeatherDisplay:10.37,2013-10-08 16:22:00,
2013-10-08 11:27:00,68.9,48.4,29.71,South,173,10.3,18.4,48,0.00,CLR,SKC,0.00,WeatherDisplay:10.37,2013-10-08 16:27:00,
2013-10-08 11:32:00,69.5,47.2,29.71,SSW,192,8.8,17.3,45,0.00,CLR,SKC,0.00,WeatherDisplay:10.37,2013-10-08 16:32:00,
2013-10-08 11:37:00,69.8,45.0,29.71,South,183,12.1,24.2,41,0.00,CLR,SKC,0.00,WeatherDisplay:10.37,2013-10-08 16:37:00,
2013-10-08 11:42:00,70.2,45.4,29.71,SSW,196,10.9,21.9,41,0.00,CLR,SKC,0.00,WeatherDisplay:10.37,2013-10-08 16:42:00,
2013-10-08 11:47:00,70.5,46.3,29.71,SW,226,9.0,13.8,42,0.00,CLR,SKC,0.00,WeatherDisplay:10.37,2013-10-08 16:47:00,
2013-10-08 11:52:00,70.6,45.1,29.71,South,171,11.4,17.3,40,0.00,CLR,SKC,0.00,WeatherDisplay:10.37,2013-10-08 16:52:00,
2013-10-08 11:57:00,70.7,45.8,29.71,South,172,12.8,21.9,41,0.00,CLR,SKC,0.00,WeatherDisplay:10.37,2013-10-08 16:57:00,
2013-10-08 12:02:00,71.1,44.2,29.70,South,179,15.0,21.0,38,0.00,CLR,SKC,0.00,WeatherDisplay:10.37,2013-10-08 17:02:00,
2013-10-08 12:07:00,71.8,46.2,29.70,South,178,9.8,16.1,40,0.00,CLR,SKC,0.00,WeatherDisplay:10.37,2013-10-08 17:07:00,
2013-10-08 12:12:00,72.4,46.0,29.70,South,175,16.2,22.0,39,0.00,CLR,SKC,0.00,WeatherDisplay:10.37,2013-10-08 17:12:00,
2013-10-08 12:17:00,72.3,45.3,29.70,South,186,13.7,22.0,38,0.00,CLR,SKC,0.00,WeatherDisplay:10.37,2013-10-08 17:17:00,
2013-10-08 12:22:00,72.5,45.4,29.70,SW,236,11.8,21.9,38,0.00,CLR,SKC,0.00,WeatherDisplay:10.37,2013-10-08 17:22:00,
2013-10-08 12:27:00,73.0,45.9,29.70,SSE,162,9.3,18.4,38,0.00,CLR,SKC,0.00,WeatherDisplay:10.37,2013-10-08 17:27:00,
2013-10-08 12:32:00,72.7,44.9,29.70,SW,217,10.8,21.9,37,0.00,CLR,SKC,0.00,WeatherDisplay:10.37,2013-10-08 17:32:00,
2013-10-08 12:37:00,72.0,45.0,29.69,SSE,168,14.7,21.0,38,0.00,CLR,SKC,0.00,WeatherDisplay:10.37,2013-10-08 17:37:00,
2013-10-08 12:42:00,71.9,44.9,29.69,SW,219,12.7,22.0,38,0.00,CLR,SKC,0.00,WeatherDisplay:10.37,2013-10-08 17:42:00,
2013-10-08 12:47:00,72.2,44.5,29.70,South,176,14.1,21.9,37,0.00,CLR,SKC,0.00,WeatherDisplay:10.37,2013-10-08 17:47:00,
2013-10-08 12:52:00,72.1,45.8,29.69,South,186,10.6,21.9,39,0.00,CLR,SKC,0.00,WeatherDisplay:10.37,2013-10-08 17:52:00,
2013-10-08 12:57:00,72.2,46.5,29.69,South,172,9.9,17.3,40,0.00,CLR,SKC,0.00,WeatherDisplay:10.37,2013-10-08 17:57:00,
2013-10-08 13:02:00,72.3,45.9,29.69,South,180,10.3,18.4,39,0.00,CLR,SKC,0.00,WeatherDisplay:10.37,2013-10-08 18:02:00,
2013-10-08 13:07:00,72.3,45.9,29.69,South,182,12.6,18.4,39,0.00,CLR,SKC,0.00,WeatherDisplay:10.37,2013-10-08 18:07:00,
2013-10-08 13:12:00,71.9,46.3,29.69,South,182,12.6,20.7,40,0.00,CLR,SKC,0.00,WeatherDisplay:10.37,2013-10-08 18:12:00,
2013-10-08 13:17:00,71.6,46.0,29.69,South,182,10.9,18.4,40,0.00,CLR,SKC,0.00,WeatherDisplay:10.37,2013-10-08 18:17:00,
2013-10-08 13:22:00,72.0,47.0,29.68,SSE,167,12.5,16.1,41,0.00,CLR,SKC,0.00,WeatherDisplay:10.37,2013-10-08 18:22:00,
2013-10-08 13:27:00,72.7,47.0,29.68,SSW,196,14.3,20.0,40,0.00,CLR,SKC,0.00,WeatherDisplay:10.37,2013-10-08 18:27:00,
2013-10-08 13:32:00,73.2,46.8,29.68,South,181,11.2,17.3,39,0.00,CLR,SKC,0.00,WeatherDisplay:10.37,2013-10-08 18:32:00,
2013-10-08 13:37:00,73.8,48.0,29.68,South,187,8.5,19.6,40,0.00,CLR,SKC,0.00,WeatherDisplay:10.37,2013-10-08 18:37:00,
2013-10-08 13:42:00,74.4,47.1,29.68,South,180,10.5,16.1,38,0.00,CLR,SKC,0.00,WeatherDisplay:10.37,2013-10-08 18:42:00,
2013-10-08 13:47:00,75.0,47.0,29.68,South,178,10.4,15.0,37,0.00,CLR,SKC,0.00,WeatherDisplay:10.37,2013-10-08 18:47:00,
2013-10-08 13:52:00,75.1,46.3,29.68,South,180,15.4,20.0,36,0.00,CLR,SKC,0.00,WeatherDisplay:10.37,2013-10-08 18:52:00,
2013-10-08 13:57:00,75.1,47.0,29.67,SSE,168,12.9,16.0,37,0.00,CLR,SKC,0.00,WeatherDisplay:10.37,2013-10-08 18:57:00,
2013-10-08 14:02:00,74.6,45.1,29.67,South,173,13.6,21.0,35,0.00,CLR,SKC,0.00,WeatherDisplay:10.37,2013-10-08 19:02:00,
2013-10-08 14:07:00,74.0,46.8,29.67,SSE,165,13.0,20.7,38,0.00,CLR,SKC,0.00,WeatherDisplay:10.37,2013-10-08 19:07:00,
2013-10-08 14:12:00,74.4,45.0,29.67,South,180,14.3,19.6,35,0.00,CLR,SKC,0.00,WeatherDisplay:10.37,2013-10-08 19:12:00,
2013-10-08 14:17:00,74.6,45.9,29.67,SSW,202,12.5,19.6,36,0.00,CLR,SKC,0.00,WeatherDisplay:10.37,2013-10-08 19:17:00,
2013-10-08 14:22:00,75.1,46.3,29.67,SSE,156,12.3,20.7,36,0.00,CLR,SKC,0.00,WeatherDisplay:10.37,2013-10-08 19:22:00,
2013-10-08 14:27:00,75.9,47.0,29.66,South,177,11.3,15.0,36,0.00,CLR,SKC,0.00,WeatherDisplay:10.37,2013-10-08 19:27:00,
2013-10-08 14:32:00,76.1,45.7,29.67,South,182,13.7,20.7,34,0.00,CLR,SKC,0.00,WeatherDisplay:10.37,2013-10-08 19:32:00,
2013-10-08 14:37:00,76.2,46.5,29.66,SSE,164,10.5,18.4,35,0.00,CLR,SKC,0.00,WeatherDisplay:10.37,2013-10-08 19:37:00,
2013-10-08 14:42:00,76.3,45.9,29.66,South,188,15.8,21.0,34,0.00,CLR,SKC,0.00,WeatherDisplay:10.37,2013-10-08 19:42:00,
2013-10-08 14:47:00,76.3,45.9,29.66,South,174,12.7,21.0,34,0.00,CLR,SKC,0.00,WeatherDisplay:10.37,2013-10-08 19:47:00,
2013-10-08 14:52:00,76.5,45.2,29.66,SSW,195,15.3,24.2,33,0.00,CLR,SKC,0.00,WeatherDisplay:10.37,2013-10-08 19:52:00,
2013-10-08 14:57:00,76.4,45.2,29.66,SSE,167,16.7,23.0,33,0.00,CLR,SKC,0.00,WeatherDisplay:10.37,2013-10-08 19:57:00,
2013-10-08 15:02:00,76.2,45.8,29.66,South,178,10.2,23.0,34,0.00,CLR,SKC,0.00,WeatherDisplay:10.37,2013-10-08 20:02:00,
2013-10-08 15:07:00,75.5,45.2,29.66,South,182,11.3,19.6,34,0.00,CLR,SKC,0.00,WeatherDisplay:10.37,2013-10-08 20:07:00,
2013-10-08 15:12:00,75.2,45.7,29.66,South,181,13.1,18.4,35,0.00,CLR,SKC,0.00,WeatherDisplay:10.37,2013-10-08 20:12:00,
2013-10-08 15:17:00,75.8,47.7,29.66,South,173,11.8,18.4,37,0.00,CLR,SKC,0.00,WeatherDisplay:10.37,2013-10-08 20:17:00,
2013-10-08 15:22:00,76.2,46.5,29.66,South,179,14.0,20.7,35,0.00,CLR,SKC,0.00,WeatherDisplay:10.37,2013-10-08 20:22:00,
2013-10-08 15:27:00,76.3,46.6,29.66,SSE,165,15.0,24.2,35,0.00,CLR,SKC,0.00,WeatherDisplay:10.37,2013-10-08 20:27:00,
2013-10-08 15:32:00,76.4,47.5,29.66,SSE,165,11.4,17.3,36,0.00,CLR,SKC,0.00,WeatherDisplay:10.37,2013-10-08 20:32:00,
2013-10-08 15:37:00,76.1,46.5,29.66,SSE,166,14.2,18.4,35,0.00,CLR,SKC,0.00,WeatherDisplay:10.37,2013-10-08 20:37:00,
2013-10-08 15:42:00,75.8,46.9,29.66,South,184,10.5,18.4,36,0.00,CLR,SKC,0.00,WeatherDisplay:10.37,2013-10-08 20:42:00,
2013-10-08 15:47:00,75.7,46.8,29.66,SW,227,15.3,22.0,36,0.00,CLR,SKC,0.00,WeatherDisplay:10.37,2013-10-08 20:47:00,
2013-10-08 15:52:00,75.5,47.4,29.65,SSW,192,12.7,20.7,37,0.00,CLR,SKC,0.00,WeatherDisplay:10.37,2013-10-08 20:52:00,
2013-10-08 15:57:00,75.4,47.3,29.65,SSE,164,15.0,26.5,37,0.00,CLR,SKC,0.00,WeatherDisplay:10.37,2013-10-08 20:57:00,
2013-10-08 16:02:00,75.3,46.5,29.65,South,173,18.3,24.0,36,0.00,CLR,SKC,0.00,WeatherDisplay:10.37,2013-10-08 21:02:00,
2013-10-08 16:07:00,75.2,46.4,29.65,South,185,15.7,21.0,36,0.00,CLR,SKC,0.00,WeatherDisplay:10.37,2013-10-08 21:07:00,
2013-10-08 16:12:00,75.3,46.5,29.65,South,184,16.4,26.5,36,0.00,CLR,SKC,0.00,WeatherDisplay:10.37,2013-10-08 21:12:00,
2013-10-08 16:17:00,75.0,46.2,29.65,South,175,13.3,20.0,36,0.00,CLR,SKC,0.00,WeatherDisplay:10.37,2013-10-08 21:17:00,
2013-10-08 16:22:00,74.7,46.7,29.65,SSE,167,13.0,17.3,37,0.00,CLR,SKC,0.00,WeatherDisplay:10.37,2013-10-08 21:22:00,
2013-10-08 16:27:00,74.7,47.4,29.65,South,173,8.9,20.0,38,0.00,CLR,SKC,0.00,WeatherDisplay:10.37,2013-10-08 21:27:00,
2013-10-08 16:32:00,74.8,48.2,29.65,SSE,165,8.1,15.0,39,0.00,CLR,SKC,0.00,WeatherDisplay:10.37,2013-10-08 21:32:00,
2013-10-08 16:37:00,74.8,48.2,29.65,SSE,167,9.5,15.0,39,0.00,CLR,SKC,0.00,WeatherDisplay:10.37,2013-10-08 21:37:00,
2013-10-08 16:42:00,74.5,47.2,29.65,South,176,10.1,16.1,38,0.00,CLR,SKC,0.00,WeatherDisplay:10.37,2013-10-08 21:42:00,
2013-10-08 16:47:00,74.1,46.9,29.65,SSW,205,11.3,17.3,38,0.00,CLR,SKC,0.00,WeatherDisplay:10.37,2013-10-08 21:47:00,
2013-10-08 16:52:00,73.7,47.2,29.65,SSE,168,9.4,15.0,39,0.00,CLR,SKC,0.00,WeatherDisplay:10.37,2013-10-08 21:52:00,
2013-10-08 16:57:00,73.4,47.6,29.65,South,176,9.6,16.1,40,0.00,CLR,SKC,0.00,WeatherDisplay:10.37,2013-10-08 21:57:00,
2013-10-08 17:02:00,73.2,48.1,29.65,South,174,12.2,19.6,41,0.00,CLR,SKC,0.00,WeatherDisplay:10.37,2013-10-08 22:02:00,
2013-10-08 17:07:00,73.1,48.6,29.65,South,173,8.9,18.4,42,0.00,CLR,SKC,0.00,WeatherDisplay:10.37,2013-10-08 22:07:00,
2013-10-08 17:12:00,73.2,47.4,29.65,SSE,162,11.6,18.4,40,0.00,CLR,SKC,0.00,WeatherDisplay:10.37,2013-10-08 22:12:00,
2013-10-08 17:17:00,73.3,48.2,29.65,South,173,12.0,16.1,41,0.00,CLR,SKC,0.00,WeatherDisplay:10.37,2013-10-08 22:17:00,
2013-10-08 17:22:00,73.3,47.5,29.65,South,179,11.1,15.0,40,0.00,CLR,SKC,0.00,WeatherDisplay:10.37,2013-10-08 22:22:00,
2013-10-08 17:27:00,73.0,47.2,29.65,South,169,13.7,20.0,40,0.00,CLR,SKC,0.00,WeatherDisplay:10.37,2013-10-08 22:27:00,
2013-10-08 17:32:00,72.7,47.6,29.65,SSE,148,12.0,16.1,41,0.00,CLR,SKC,0.00,WeatherDisplay:10.37,2013-10-08 22:32:00,
2013-10-08 17:37:00,72.5,48.1,29.65,South,184,11.8,16.1,42,0.00,CLR,SKC,0.00,WeatherDisplay:10.37,2013-10-08 22:37:00,
2013-10-08 17:42:00,72.4,47.4,29.65,SSE,167,13.3,17.3,41,0.00,CLR,SKC,0.00,WeatherDisplay:10.37,2013-10-08 22:42:00,
2013-10-08 17:47:00,72.2,47.8,29.65,SSE,154,13.1,17.3,42,0.00,CLR,SKC,0.00,WeatherDisplay:10.37,2013-10-08 22:47:00,
2013-10-08 17:52:00,71.9,48.2,29.65,SSE,154,10.4,14.0,43,0.00,CLR,SKC,0.00,WeatherDisplay:10.37,2013-10-08 22:52:00,
2013-10-08 17:57:00,71.5,47.8,29.65,SSE,167,9.2,15.0,43,0.00,CLR,SKC,0.00,WeatherDisplay:10.37,2013-10-08 22:57:00,
2013-10-08 18:02:00,71.1,48.1,29.65,SSE,159,11.7,16.1,44,0.00,CLR,SKC,0.00,WeatherDisplay:10.37,2013-10-08 23:02:00,
2013-10-08 18:07:00,70.8,47.2,29.65,South,173,12.0,17.3,43,0.00,CLR,SKC,0.00,WeatherDisplay:10.37,2013-10-08 23:07:00,
2013-10-08 18:12:00,70.6,48.2,29.65,South,171,8.3,16.1,45,0.00,CLR,SKC,0.00,WeatherDisplay:10.37,2013-10-08 23:12:00,
2013-10-08 18:17:00,70.2,47.9,29.65,South,180,10.5,13.8,45,0.00,CLR,SKC,0.00,WeatherDisplay:10.37,2013-10-08 23:17:00,
2013-10-08 18:22:00,69.8,47.5,29.65,SSE,160,10.6,15.0,45,0.00,CLR,SKC,0.00,WeatherDisplay:10.37,2013-10-08 23:22:00,
2013-10-08 18:27:00,69.5,47.8,29.65,SSE,167,11.4,15.0,46,0.00,CLR,SKC,0.00,WeatherDisplay:10.37,2013-10-08 23:27:00,
2013-10-08 18:32:00,69.1,48.0,29.66,SSE,165,9.3,13.8,47,0.00,CLR,SKC,0.00,WeatherDisplay:10.37,2013-10-08 23:32:00,
2013-10-08 18:37:00,68.6,48.1,29.65,SSE,148,7.7,12.0,48,0.00,CLR,SKC,0.00,WeatherDisplay:10.37,2013-10-08 23:37:00,
2013-10-08 18:42:00,68.0,48.1,29.65,SSE,165,8.5,11.5,49,0.00,CLR,SKC,0.00,WeatherDisplay:10.37,2013-10-08 23:42:00,
2013-10-08 18:47:00,67.6,48.3,29.65,South,172,9.4,13.0,50,0.00,CLR,SKC,0.00,WeatherDisplay:10.37,2013-10-08 23:47:00,
2013-10-08 18:52:00,67.0,48.3,29.66,SSE,157,6.3,10.4,51,0.00,CLR,SKC,0.00,WeatherDisplay:10.37,2013-10-08 23:52:00,
2013-10-08 18:57:00,66.5,48.3,29.66,SSE,163,7.4,11.5,52,0.00,CLR,SKC,0.00,WeatherDisplay:10.37,2013-10-08 23:57:00,
2013-10-08 19:02:00,66.1,48.5,29.66,South,171,9.0,12.0,53,0.00,CLR,SKC,0.00,WeatherDisplay:10.37,2013-10-09 00:02:00,
2013-10-08 19:07:00,65.9,48.8,29.66,SSE,155,8.0,10.4,54,0.00,CLR,SKC,0.00,WeatherDisplay:10.37,2013-10-09 00:07:00,
2013-10-08 19:12:00,65.8,48.7,29.66,SSE,163,7.8,12.0,54,0.00,CLR,SKC,0.00,WeatherDisplay:10.37,2013-10-09 00:12:00,
2013-10-08 19:17:00,65.8,48.7,29.66,SSE,168,8.9,13.0,54,0.00,CLR,SKC,0.00,WeatherDisplay:10.37,2013-10-09 00:17:00,
2013-10-08 19:22:00,65.8,48.2,29.67,SSE,155,8.3,11.5,53,0.00,CLR,SKC,0.00,WeatherDisplay:10.37,2013-10-09 00:22:00,
2013-10-08 19:27:00,65.7,48.1,29.67,South,171,7.4,12.7,53,0.00,CLR,SKC,0.00,WeatherDisplay:10.37,2013-10-09 00:27:00,
2013-10-08 19:32:00,65.4,48.3,29.67,SSE,163,8.9,12.0,54,0.00,CLR,SKC,0.00,WeatherDisplay:10.37,2013-10-09 00:32:00,
2013-10-08 19:37:00,65.3,48.2,29.67,SSE,165,7.2,11.5,54,0.00,CLR,SKC,0.00,WeatherDisplay:10.37,2013-10-09 00:37:00,
2013-10-08 19:42:00,65.2,48.1,29.67,South,175,8.1,11.5,54,0.00,CLR,SKC,0.00,WeatherDisplay:10.37,2013-10-09 00:42:00,
2013-10-08 19:47:00,65.0,48.4,29.67,SSE,160,10.0,13.8,55,0.00,CLR,SKC,0.00,WeatherDisplay:10.37,2013-10-09 00:47:00,
2013-10-08 19:52:00,65.0,48.4,29.67,South,173,7.4,16.1,55,0.00,CLR,SKC,0.00,WeatherDisplay:10.37,2013-10-09 00:52:00,
2013-10-08 19:57:00,65.0,48.4,29.67,SSE,156,8.7,11.5,55,0.00,CLR,SKC,0.00,WeatherDisplay:10.37,2013-10-09 00:57:00,
2013-10-08 20:02:00,65.0,48.4,29.67,SSE,153,7.9,16.1,55,0.00,CLR,SKC,0.00,WeatherDisplay:10.37,2013-10-09 01:02:00,
2013-10-08 20:07:00,64.8,48.2,29.68,SSE,157,8.5,13.8,55,0.00,CLR,SKC,0.00,WeatherDisplay:10.37,2013-10-09 01:07:00,
2013-10-08 20:12:00,64.8,48.2,29.68,SSE,154,10.7,14.0,55,0.00,CLR,SKC,0.00,WeatherDisplay:10.37,2013-10-09 01:12:00,
2013-10-08 20:17:00,64.7,48.2,29.68,South,176,10.1,14.0,55,0.00,CLR,SKC,0.00,WeatherDisplay:10.37,2013-10-09 01:17:00,
2013-10-08 20:22:00,64.8,48.2,29.68,South,173,10.6,16.1,55,0.00,CLR,SKC,0.00,WeatherDisplay:10.37,2013-10-09 01:22:00,
2013-10-08 20:27:00,64.9,48.3,29.68,SSE,165,10.0,17.3,55,0.00,CLR,SKC,0.00,WeatherDisplay:10.37,2013-10-09 01:27:00,
2013-10-08 20:32:00,64.9,47.9,29.68,South,178,11.3,15.0,54,0.00,CLR,SKC,0.00,WeatherDisplay:10.37,2013-10-09 01:32:00,
2013-10-08 20:37:00,64.7,48.2,29.68,South,172,10.3,13.0,55,0.00,CLR,SKC,0.00,WeatherDisplay:10.37,2013-10-09 01:37:00,
2013-10-08 20:42:00,64.5,48.0,29.68,SSE,162,7.7,13.8,55,0.00,CLR,SKC,0.00,WeatherDisplay:10.37,2013-10-09 01:42:00,
2013-10-08 20:47:00,64.1,48.1,29.68,South,174,9.5,15.0,56,0.00,CLR,SKC,0.00,WeatherDisplay:10.37,2013-10-09 01:47:00,
2013-10-08 20:52:00,63.9,48.4,29.69,SSE,161,10.9,15.0,57,0.00,CLR,SKC,0.00,WeatherDisplay:10.37,2013-10-09 01:52:00,
2013-10-08 20:57:00,64.0,48.5,29.69,South,169,7.3,16.1,57,0.00,CLR,SKC,0.00,WeatherDisplay:10.37,2013-10-09 01:57:00,
2013-10-08 21:02:00,64.0,48.0,29.69,SSE,161,10.4,17.3,56,0.00,CLR,SKC,0.00,WeatherDisplay:10.37,2013-10-09 02:02:00,
2013-10-08 21:07:00,64.0,48.0,29.69,South,169,7.7,12.7,56,0.00,CLR,SKC,0.00,WeatherDisplay:10.37,2013-10-09 02:07:00,
2013-10-08 21:12:00,63.9,48.4,29.69,South,171,8.0,12.7,57,0.00,CLR,SKC,0.00,WeatherDisplay:10.37,2013-10-09 02:12:00,
2013-10-08 21:17:00,63.7,48.2,29.70,South,175,8.8,13.0,57,0.00,CLR,SKC,0.00,WeatherDisplay:10.37,2013-10-09 02:17:00,
2013-10-08 21:22:00,63.7,48.2,29.70,SSE,158,7.0,11.5,57,0.00,CLR,SKC,0.00,WeatherDisplay:10.37,2013-10-09 02:22:00,
2013-10-08 21:27:00,63.4,48.4,29.70,South,173,11.2,14.0,58,0.00,CLR,SKC,0.00,WeatherDisplay:10.37,2013-10-09 02:27:00,
2013-10-08 21:32:00,63.4,48.4,29.70,SSE,161,10.0,14.0,58,0.00,CLR,SKC,0.00,WeatherDisplay:10.37,2013-10-09 02:32:00,
2013-10-08 21:37:00,63.4,48.4,29.70,SSE,161,9.4,16.1,58,0.00,CLR,SKC,0.00,WeatherDisplay:10.37,2013-10-09 02:37:00,
2013-10-08 21:42:00,63.3,48.3,29.70,South,180,8.0,16.1,58,0.00,CLR,SKC,0.00,WeatherDisplay:10.37,2013-10-09 02:42:00,
2013-10-08 21:47:00,63.2,48.2,29.70,South,190,9.3,13.0,58,0.00,CLR,SKC,0.00,WeatherDisplay:10.37,2013-10-09 02:47:00,
2013-10-08 21:52:00,63.3,48.3,29.70,South,170,7.4,13.8,58,0.00,CLR,SKC,0.00,WeatherDisplay:10.37,2013-10-09 02:52:00,
2013-10-08 21:57:00,63.1,48.1,29.70,South,169,9.0,15.0,58,0.00,CLR,SKC,0.00,WeatherDisplay:10.37,2013-10-09 02:57:00,
2013-10-08 22:02:00,63.1,48.5,29.70,SSE,167,9.0,13.0,59,0.00,CLR,SKC,0.00,WeatherDisplay:10.37,2013-10-09 03:02:00,
2013-10-08 22:07:00,63.1,48.5,29.70,South,179,8.1,12.0,59,0.00,CLR,SKC,0.00,WeatherDisplay:10.37,2013-10-09 03:07:00,
2013-10-08 22:12:00,62.9,48.3,29.70,South,178,8.3,13.0,59,0.00,CLR,SKC,0.00,WeatherDisplay:10.37,2013-10-09 03:12:00,
2013-10-08 22:17:00,62.8,48.3,29.71,SSE,166,10.5,16.1,59,0.00,CLR,SKC,0.00,WeatherDisplay:10.37,2013-10-09 03:17:00,
2013-10-08 22:22:00,62.7,48.2,29.71,South,174,8.7,18.4,59,0.00,CLR,SKC,0.00,WeatherDisplay:10.37,2013-10-09 03:22:00,
2013-10-08 22:27:00,62.5,48.4,29.71,South,171,8.3,11.5,60,0.00,CLR,SKC,0.00,WeatherDisplay:10.37,2013-10-09 03:27:00,
2013-10-08 22:32:00,62.3,48.2,29.71,SSE,168,7.9,12.7,60,0.00,CLR,SKC,0.00,WeatherDisplay:10.37,2013-10-09 03:32:00,
2013-10-08 22:37:00,62.3,48.2,29.71,SSE,164,8.1,15.0,60,0.00,CLR,SKC,0.00,WeatherDisplay:10.37,2013-10-09 03:37:00,
2013-10-08 22:42:00,62.2,48.1,29.71,South,173,9.1,13.0,60,0.00,CLR,SKC,0.00,WeatherDisplay:10.37,2013-10-09 03:42:00,
2013-10-08 22:47:00,62.0,48.4,29.71,South,171,10.5,14.0,61,0.00,CLR,SKC,0.00,WeatherDisplay:10.37,2013-10-09 03:47:00,
2013-10-08 22:52:00,61.9,48.3,29.71,SSE,163,9.4,15.0,61,0.00,CLR,SKC,0.00,WeatherDisplay:10.37,2013-10-09 03:52:00,
2013-10-08 22:57:00,61.8,48.2,29.72,SSE,153,9.7,14.0,61,0.00,CLR,SKC,0.00,WeatherDisplay:10.37,2013-10-09 03:57:00,
2013-10-08 23:01:00,61.7,48.5,29.72,South,184,8.0,11.5,62,0.00,CLR,SKC,0.00,WeatherDisplay:10.37,2013-10-09 04:01:00,
2013-10-08 23:02:00,61.6,48.4,29.72,South,179,8.2,11.5,62,0.00,CLR,SKC,0.00,WeatherDisplay:10.37,2013-10-09 04:02:00,
2013-10-08 23:03:00,61.6,48.4,29.72,South,182,7.3,11.5,62,0.00,CLR,SKC,0.00,WeatherDisplay:10.37,2013-10-09 04:03:00,
2013-10-08 23:04:00,61.6,48.4,29.72,South,170,6.5,10.4,62,0.00,CLR,SKC,0.00,WeatherDisplay:10.37,2013-10-09 04:04:00,
2013-10-08 23:06:00,61.6,48.4,29.72,South,170,8.3,12.7,62,0.00,CLR,SKC,0.00,WeatherDisplay:10.37,2013-10-09 04:06:00,
2013-10-08 23:11:00,61.5,48.4,29.72,South,172,7.6,13.8,62,0.00,CLR,SKC,0.00,WeatherDisplay:10.37,2013-10-09 04:11:00,
2013-10-08 23:12:00,61.5,48.4,29.72,South,173,7.9,13.0,62,0.00,CLR,SKC,0.00,WeatherDisplay:10.37,2013-10-09 04:12:00,
2013-10-08 23:17:00,61.5,48.4,29.72,South,178,9.3,11.5,62,0.00,CLR,SKC,0.00,WeatherDisplay:10.37,2013-10-09 04:17:00,
2013-10-08 23:22:00,61.5,48.4,29.72,South,177,8.7,12.7,62,0.00,CLR,SKC,0.00,WeatherDisplay:10.37,2013-10-09 04:22:00,
2013-10-08 23:27:00,61.4,48.7,29.72,SSE,168,7.2,12.7,63,0.00,CLR,SKC,0.00,WeatherDisplay:10.37,2013-10-09 04:27:00,
2013-10-08 23:32:00,61.2,48.5,29.72,SSE,167,6.0,11.5,63,0.00,CLR,SKC,0.00,WeatherDisplay:10.37,2013-10-09 04:32:00,
2013-10-08 23:37:00,60.9,48.2,29.72,South,175,8.4,11.5,63,0.00,CLR,SKC,0.00,WeatherDisplay:10.37,2013-10-09 04:37:00,
2013-10-08 23:42:00,60.7,48.4,29.72,South,176,8.7,11.5,64,0.00,CLR,SKC,0.00,WeatherDisplay:10.37,2013-10-09 04:42:00,
2013-10-08 23:47:00,60.5,48.3,29.72,South,169,7.2,10.4,64,0.00,CLR,SKC,0.00,WeatherDisplay:10.37,2013-10-09 04:47:00,
2013-10-08 23:52:00,60.3,48.5,29.73,South,174,6.8,12.0,65,0.00,CLR,SKC,0.00,WeatherDisplay:10.37,2013-10-09 04:52:00,
2013-10-08 23:57:00,60.0,48.2,29.73,SSE,167,7.0,9.2,65,0.00,CLR,SKC,0.00,WeatherDisplay:10.37,2013-10-09 04:57:00,